TimeAST,TemperatureF,Dew PointF,Humidity,Sea Level PressureIn,VisibilityMPH,Wind Direction,Wind SpeedMPH,Gust SpeedMPH,PrecipitationIn,Events,Conditions,WindDirDegrees,DateUTC
12:00 AM,93.2,64.4,38,29.42,-9999.0,WSW,5.8,-,N/A,,Clear,250,2013-07-05 21:00:00
12:30 AM,93.2,64.4,38,29.42,-9999.0,WSW,5.8,-,N/A,,Clear,250,2013-07-05 21:30:00
1:00 AM,93.2,64.4,38,29.42,-9999.0,WNW,6.9,-,N/A,,Clear,300,2013-07-05 22:00:00
1:30 AM,93.2,66.2,41,29.42,-9999.0,NW,5.8,-,N/A,,Clear,320,2013-07-05 22:30:00
2:00 AM,91.4,62.6,38,29.42,-9999.0,NW,5.8,-,N/A,,Clear,310,2013-07-05 23:00:00
2:30 AM,91.4,64.4,41,29.42,-9999.0,NNW,5.8,-,N/A,,Clear,330,2013-07-05 23:30:00
3:00 AM,91,64,31,29.45,6,,2.3,,,,Clear,,2013-07-06 00:00:00
3:00 AM,91.4,64.4,41,29.44,-9999.0,Variable,2.3,-,N/A,,Clear,0,2013-07-06 00:00:00
3:10 AM,89.6,66.2,46,29.44,-9999.0,WSW,4.6,-,N/A,,Clear,250,2013-07-06 00:10:00
3:30 AM,91.4,66.2,43,29.44,-9999.0,Variable,2.3,-,N/A,,Clear,0,2013-07-06 00:30:00
4:30 AM,89.6,64.4,43,29.44,-9999.0,West,3.5,-,N/A,,Clear,280,2013-07-06 01:30:00
5:00 AM,91.4,62.6,38,29.44,-9999.0,West,4.6,-,N/A,,Clear,270,2013-07-06 02:00:00
5:30 AM,91.4,62.6,38,29.44,-9999.0,WNW,5.8,-,N/A,,Clear,290,2013-07-06 02:30:00
6:00 AM,91.4,66.2,43,29.44,-9999.0,Variable,2.3,-,N/A,,Clear,0,2013-07-06 03:00:00
6:30 AM,91.4,68.0,46,29.47,-9999.0,Variable,2.3,-,N/A,,Clear,0,2013-07-06 03:30:00
7:00 AM,95.0,60.8,32,29.47,-9999.0,WNW,6.9,-,N/A,,Clear,300,2013-07-06 04:00:00
7:30 AM,96.8,60.8,30,29.47,-9999.0,NW,10.4,-,N/A,,Clear,320,2013-07-06 04:30:00
8:00 AM,98.6,64.4,32,29.47,-9999.0,NW,10.4,-,N/A,,Clear,310,2013-07-06 05:00:00
8:30 AM,98.6,66.2,35,29.47,-9999.0,NW,9.2,-,N/A,,Clear,320,2013-07-06 05:30:00
9:00 AM,100,67,25,29.49,6,NW,9.2,,,,Scattered Clouds,310,2013-07-06 06:00:00
9:00 AM,100.4,66.2,33,29.47,-9999.0,NW,9.2,-,N/A,,Clear,310,2013-07-06 06:00:00
10:00 AM,104.0,66.2,29,29.47,-9999.0,NNW,10.4,-,N/A,,Clear,340,2013-07-06 07:00:00
11:00 AM,104.0,69.8,33,29.47,-9999.0,North,12.7,-,N/A,,Clear,10,2013-07-06 08:00:00
11:30 AM,102.2,75.2,42,29.47,-9999.0,NNE,11.5,-,N/A,,Clear,30,2013-07-06 08:30:00
12:00 PM,100.4,73.4,42,29.47,-9999.0,North,11.5,-,N/A,,Clear,10,2013-07-06 09:00:00
12:30 PM,100.4,75.2,44,29.47,-9999.0,North,10.4,-,N/A,,Clear,10,2013-07-06 09:30:00
1:00 PM,100.4,75.2,44,29.47,-9999.0,North,11.5,-,N/A,,Clear,10,2013-07-06 10:00:00
1:30 PM,102.2,75.2,42,29.44,-9999.0,NNE,9.2,-,N/A,,Clear,20,2013-07-06 10:30:00
2:00 PM,100.4,77.0,47,29.44,-9999.0,NE,9.2,-,N/A,,Clear,40,2013-07-06 11:00:00
2:30 PM,102.2,71.6,37,29.44,-9999.0,NE,9.2,-,N/A,,Clear,40,2013-07-06 11:30:00
3:00 PM,102,71,28,29.46,7,NNE,8.1,,,,Scattered Clouds,30,2013-07-06 12:00:00
3:00 PM,102.2,71.6,37,29.44,-9999.0,NNE,8.1,-,N/A,,Clear,30,2013-07-06 12:00:00
3:30 PM,102.2,69.8,35,29.44,-9999.0,NNE,8.1,-,N/A,,Clear,20,2013-07-06 12:30:00
4:00 PM,100.4,68.0,35,29.44,-9999.0,North,9.2,-,N/A,,Clear,360,2013-07-06 13:00:00
4:30 PM,100.4,64.4,31,29.44,-9999.0,North,8.1,-,N/A,,Clear,10,2013-07-06 13:30:00
5:00 PM,100.4,69.8,37,29.44,-9999.0,North,6.9,-,N/A,,Clear,10,2013-07-06 14:00:00
5:30 PM,98.6,69.8,39,29.44,-9999.0,North,5.8,-,N/A,,Clear,10,2013-07-06 14:30:00
6:00 PM,96.8,73.4,47,29.44,-9999.0,North,6.9,-,N/A,,Clear,10,2013-07-06 15:00:00
6:30 PM,95.0,77.0,56,29.47,-9999.0,ENE,5.8,-,N/A,,Clear,70,2013-07-06 15:30:00
7:00 PM,93.2,80.6,67,29.47,-9999.0,ENE,5.8,-,N/A,,Clear,60,2013-07-06 16:00:00
7:30 PM,91.4,82.4,75,29.47,-9999.0,ENE,5.8,-,N/A,,Clear,70,2013-07-06 16:30:00
8:00 PM,91.4,84.2,79,29.47,-9999.0,ENE,4.6,-,N/A,,Clear,70,2013-07-06 17:00:00
8:30 PM,91.4,84.2,79,29.50,-9999.0,NNE,4.6,-,N/A,,Clear,20,2013-07-06 17:30:00
9:00 PM,90,85,81,29.51,6,North,5.8,,,,Haze,10,2013-07-06 18:00:00
9:00 PM,89.6,84.2,84,29.50,5.6,North,5.8,-,N/A,,Unknown,10,2013-07-06 18:00:00
9:30 PM,91.4,84.2,79,29.50,5.6,North,6.9,-,N/A,,Unknown,360,2013-07-06 18:30:00
10:00 PM,91.4,84.2,79,29.50,5.6,NNW,6.9,-,N/A,,Unknown,340,2013-07-06 19:00:00
10:30 PM,91.4,82.4,75,29.50,5.6,Variable,2.3,-,N/A,,Unknown,0,2013-07-06 19:30:00
11:00 PM,89.6,84.2,84,29.50,5.6,ESE,5.8,-,N/A,,Unknown,120,2013-07-06 20:00:00
11:30 PM,91.4,84.2,79,29.50,5.6,Variable,1.2,-,N/A,,Unknown,0,2013-07-06 20:30:00